Location: Geroldsau
(48.7259°N, 8.2466°E)
Time: 10:19:50
(UTC+00:00)

USA 308 - Pass Details

Date: 20 June 2021
Orbit: 566 x 576 km, 54.0° (Epoch: 13 July)

Event Time Altitude Azimuth Distance (km) Brightness Sun altitude
Exits shadow 00:51:58 25° 169° (S) 1,173 4.0 -15.5°
Maximum altitude 00:53:18 30° 137° (SE) 1,035 4.0 -15.4°
Drops below altitude 10° 00:57:00 10° 76° (ENE) 1,865 6.0 -15.2°
Sets 00:59:26 0° 65° (ENE) 2,765 7.1 -15.0°
